DLH234 TFFR-TFFJ

Flight info

Callsign DLH234
Flight time N/A
Altitude 16000
Route BIMBO2F BIMBO DCT ELOPO
Aircraft DH8D/M-SDE2E3FGRY/H

Departure

Time 2026-04-30 19:23
Airport Maryse Condé International Airport (TFFR)

Arrival

Time N/A
Airport St. Jean Airport (TFFJ)
Time Latitude Longitude Altitude Speed Heading
2026-04-30 19:07 16.26823 -61.52216 42 ft 0 kts 11°
2026-04-30 19:19 16.26822 -61.52216 42 ft 2 kts 11°
2026-04-30 19:19 16.26743 -61.52227 42 ft 1 kts
2026-04-30 19:20 16.26758 -61.52227 42 ft 2 kts 354°
2026-04-30 19:20 16.26764 -61.52286 40 ft 15 kts 270°
2026-04-30 19:20 16.26796 -61.52614 36 ft 29 kts 279°
2026-04-30 19:21 16.26834 -61.52812 33 ft 25 kts 284°
2026-04-30 19:21 16.26734 -61.52948 33 ft 9 kts 184°
2026-04-30 19:22 16.26590 -61.52974 33 ft 10 kts 191°
2026-04-30 19:22 16.26476 -61.52906 35 ft 22 kts 101°
2026-04-30 19:23 16.26148 -61.50468 710 ft 150 kts 84°
2026-04-30 19:24 16.26329 -61.48025 1630 ft 178 kts 64°
2026-04-30 19:24 16.27340 -61.47256 2207 ft 191 kts 14°
2026-04-30 19:24 16.29519 -61.48786 3533 ft 210 kts 301°
2026-04-30 19:25 16.31819 -61.52659 5774 ft 208 kts 306°
2026-04-30 19:26 16.33450 -61.55131 7193 ft 205 kts 307°
2026-04-30 19:26 16.35116 -61.57559 8326 ft 209 kts 307°
2026-04-30 19:26 16.35965 -61.58775 8874 ft 209 kts 308°
2026-04-30 19:27 16.37686 -61.61209 9966 ft 207 kts 308°
2026-04-30 19:27 16.39406 -61.63618 11022 ft 208 kts 307°
2026-04-30 19:28 16.40269 -61.64819 11545 ft 208 kts 307°
2026-04-30 19:28 16.42006 -61.67235 12593 ft 210 kts 307°
2026-04-30 19:29 16.43763 -61.69671 13650 ft 211 kts 306°
2026-04-30 19:29 16.44649 -61.70898 14183 ft 212 kts 306°
2026-04-30 19:30 16.47328 -61.74613 15682 ft 221 kts 304°
2026-04-30 19:30 16.49354 -61.77436 15960 ft 266 kts 304°
2026-04-30 19:31 16.51760 -61.80786 15982 ft 302 kts 304°
2026-04-30 19:31 16.53036 -61.82566 15980 ft 311 kts 305°
2026-04-30 19:31 16.55711 -61.86280 15982 ft 326 kts 305°
2026-04-30 19:32 16.57094 -61.88199 15981 ft 331 kts 305°
2026-04-30 19:32 16.58491 -61.90138 15982 ft 336 kts 305°
2026-04-30 19:32 16.59910 -61.92107 15980 ft 339 kts 305°
2026-04-30 19:32 16.61345 -61.94099 15972 ft 342 kts 305°
2026-04-30 19:33 16.62889 -61.95978 15943 ft 347 kts 317°
2026-04-30 19:33 16.64939 -61.97337 15990 ft 349 kts 329°
2026-04-30 19:33 16.67091 -61.98573 15984 ft 350 kts 329°
2026-04-30 19:33 16.69248 -61.99805 15988 ft 352 kts 329°
2026-04-30 19:34 16.71414 -62.01044 15983 ft 353 kts 329°
2026-04-30 19:34 16.73601 -62.02298 15971 ft 354 kts 329°